Location: Township of Marena
(38.1747°N, 99.6798°W)
Time: 03:17:47
(UTC+00:00)

Cosmos 1697 Rocket - Pass Details

Date: 26 October 2020
Orbit: 831 x 845 km, 71.0° (Epoch: 25 November)

Event Time Altitude Azimuth Distance (km) Brightness Sun altitude
Rises 02:39:00 0° 230° (SW) 3,364 6.3 -34.4°
Reaches altitude 10° 02:41:43 10° 241° (WSW) 2,435 5.6 -34.9°
Maximum altitude 02:46:34 30° 301° (WNW) 1,463 4.3 -35.8°
Enters shadow 02:48:01 26° 328° (NNW) 1,577 4.4 -36.1°
